Temperature
19 18 20 19 19 19 19 20 20 20 20 20 20 20 20 20 20 20 20 20 20 20 19 20 20 20 20 19 19 19 19 19 19 19 19 19 19 19 19 19 18 18 19
19 18 20 19 19 19 19 19 19 19 19 19 19 19 19 19 19 19 19 19 19 19 19 19 19 19 19 19 19 19 19 19 19 19 19 19 19 19 19 19 18 18 19
19 18 19 19 19 19 19 19 19 19 19 19 19 19 19 19 19 19 19 19 19 19 19 19 19 19 19 19 19 19 19 19 19 19 19 18 18 18 18 18 18 18 18
18 18 18 19 19 19 19 19 19 19 19 19 19 19 19 19 19 19 19 19 19 19 19 19 19 19 19 19 19 19 18 18 18 18 18 18 17 18 18 18 18 18 18
18 18 18 19 19 19 18 18 18 18 19 19 19 19 19 19 19 19 19 19 19 19 19 19 19 19 19 19 18 18 18 18 18 18 17 18 18 18 18 18 18 18 18
18 18 18 18 18 18 18 18 18 18 18 18 18 18 19 19 19 19 18 19 19 19 18 18 18 18 18 18 18 18 18 18 18 17 17 17 18 18 18 18 18 18 18
18 18 18 18 18 18 18 18 18 18 18 18 18 18 18 18 18 18 18 18 18 18 18 18 18 18 18 18 18 18 18 18 18 17 17 17 18 18 18 18 18 18 18
18 18 18 18 18 18 18 18 18 18 18 18 18 18 18 18 18 18 18 18 18 18 18 18 18 18 18 18 18 18 18 18 17 17 17 17 18 18 18 18 18 18 18
18 18 18 18 18 18 18 18 18 18 18 18 18 18 18 18 18 18 18 18 18 18 18 18 18 18 18 18 18 18 18 18 17 17 17 17 18 18 18 18 18 18 18
18 18 18 17 18 17 17 17 17 17 17 17 18 18 18 18 18 18 18 18 18 18 18 18 18 18 18 18 18 18 18 18 17 17 17 17 18 18 18 18 18 18 18
17 17 17 17 17 17 17 17 17 17 17 17 17 17 17 17 17 17 17 17 18 18 18 18 18 18 18 18 18 18 18 17 17 17 17 18 18 18 18 18 18 18 18
17 16 16 16 16 16 17 17 17 17 17 17 17 17 17 17 17 17 17 17 17 18 18 18 18 18 18 17 17 18 17 17 17 17 17 18 18 18 18 18 18 18 18
16 16 16 16 16 15 16 16 16 16 16 17 17 17 17 17 17 17 17 17 17 17 17 17 17 17 17 17 17 17 17 18 18 18 18 18 18 18 18 18 18 18 18
15 15 15 15 15 15 15 15 15 15 16 16 16 16 17 17 17 17 17 17 17 17 17 17 17 17 17 18 17 18 18 17 18 18 18 18 18 18 17 18 18 18 18
15 15 14 14 14 14 14 14 15 15 15 15 16 16 16 16 17 17 17 17 17 17 17 17 17 17 17 18 18 18 18 18 18 18 18 18 18 18 17 17 17 18 18
15 14 14 14 13 13 14 14 14 14 15 15 15 15 15 16 16 17 17 17 17 17 17 17 17 17 17 17 17 17 18 18 18 17 17 17 18 18 17 17 17 17 17
14 14 13 13 13 13 13 13 14 14 14 14 14 15 15 15 15 16 16 16 17 17 17 17 17 17 17 17 17 17 18 18 18 18 18 17 17 18 18 17 17 17 17
14 14 13 13 13 13 13 13 13 13 13 14 14 14 14 14 15 15 16 16 16 16 17 17 17 17 17 17 17 17 17 17 17 18 18 18 18 18 18 18 17 17 17
13 13 13 13 12 12 13 13 13 13 13 13 13 14 14 14 14 15 15 15 16 16 16 16 17 17 17 17 17 17 17 17 17 17 18 18 18 18 18 18 18 17 17
13 13 13 13 12 12 12 13 13 13 13 13 13 13 14 14 14 14 14 15 15 15 16 16 16 16 17 17 17 17 17 17 17 17 18 18 18 18 18 17 17 17 17
13 13 13 13 12 12 12 12 12 13 13 13 13 13 13 13 13 14 14 14 14 15 15 15 16 16 16 16 16 16 17 17 17 17 17 18 18 18 18 18 17 17 17
13 13 13 13 12 12 12 12 12 12 12 12 12 13 13 13 13 13 13 14 14 14 15 15 15 16 16 16 16 16 16 16 17 17 17 17 18 18 18 18 18 17 17
14 13 13 12 12 12 12 12 12 12 12 12 12 12 13 13 13 13 13 13 14 14 14 15 15 15 15 15 16 16 16 17 17 17 17 17 18 18 18 18 18 18 17
14 13 13 12 12 12 11 12 12 12 12 12 12 12 12 12 13 13 13 13 13 14 14 14 14 15 15 15 15 15 16 16 16 16 17 17 17 18 18 18 18 18 18
13 13 12 12 12 11 11 11 11 12 11 12 12 12 12 12 12 12 13 13 13 13 14 14 14 14 14 14 15 15 15 15 16 16 16 17 17 17 17 17 18 18 18
13 13 12 12 12 11 11 11 11 11 11 11 11 12 12 12 12 12 12 13 13 13 13 13 14 14 14 14 14 14 15 15 15 16 16 16 16 17 17 17 17 17 17
Wind_Speed
6 9 10 8 8 7 7 7 6 6 6 7 7 6 6 5 5 4 4 3 3 2 2 1 2 2 3 3 3 3 4 4 4 4 4 5 5 5 5 5 3 7 9
6 9 10 8 7 7 7 7 6 6 6 6 6 6 5 5 4 4 4 3 3 3 2 2 2 1 2 2 2 2 3 3 3 4 3 4 5 4 5 3 3 7 7
5 7 9 7 6 6 6 7 7 7 7 6 6 6 6 5 5 5 4 4 4 4 3 2 2 2 1 1 1 2 2 2 2 2 2 2 5 5 4 4 4 6 6
4 4 4 5 4 5 5 6 7 8 7 7 7 7 7 7 6 6 5 5 5 4 4 3 3 2 2 1 1 1 1 2 2 2 3 2 2 6 3 4 4 5 5
3 2 4 2 1 2 4 5 6 7 7 8 8 8 8 7 7 7 7 6 6 5 5 4 3 3 3 2 1 1 1 3 3 5 1 1 2 5 3 3 4 4 4
3 4 5 7 5 4 4 5 6 7 8 8 8 8 9 9 8 8 8 7 7 6 6 5 4 4 3 3 2 1 2 3 5 2 1 1 2 5 2 2 3 4 5
6 6 8 10 10 9 8 7 7 7 8 9 9 9 10 10 10 9 9 9 8 7 7 6 5 5 4 4 3 2 2 3 4 2 2 1 3 4 2 2 3 4 5
8 9 10 11 11 11 11 10 10 9 9 9 9 10 10 11 11 11 10 10 9 9 8 7 6 6 5 4 4 3 3 5 5 4 3 2 4 2 2 2 3 4 4
9 9 9 10 10 11 12 11 11 10 9 9 10 10 11 11 11 12 12 11 10 10 9 8 8 7 6 5 5 4 4 5 5 4 4 3 5 2 2 2 3 3 4
8 8 8 8 9 9 10 10 11 11 9 9 9 10 10 11 12 12 13 13 12 11 11 10 9 8 7 6 6 5 5 7 7 5 4 4 5 3 3 2 3 3 4
8 7 6 7 7 7 8 7 8 9 7 8 8 9 10 10 11 10 12 10 12 12 12 11 10 9 8 9 8 6 8 9 6 5 4 6 5 4 4 4 3 3 4
8 7 6 7 7 7 6 6 6 7 5 5 6 7 7 8 9 11 8 9 12 13 12 12 11 11 12 10 11 10 10 9 7 6 5 6 5 5 5 4 4 4 4
8 8 8 8 8 7 6 6 5 5 5 5 5 6 6 7 8 9 8 8 11 13 12 12 12 12 11 8 7 9 8 8 7 7 6 8 6 7 6 6 6 5 5
9 9 9 10 9 9 8 7 6 6 5 5 5 6 5 4 5 6 6 8 8 8 8 8 8 9 10 10 10 10 9 8 7 6 6 8 6 8 8 8 7 7 6
10 10 11 10 10 9 8 7 7 6 6 6 5 6 6 5 5 5 5 6 7 7 7 7 8 8 8 9 8 9 9 10 9 8 6 9 8 8 9 9 9 8 8
10 11 11 11 10 10 9 8 7 7 7 7 6 7 7 6 5 5 5 5 5 7 7 7 7 7 7 6 8 9 9 9 10 10 9 9 11 10 10 10 10 10 9
11 11 11 11 10 11 10 9 8 7 8 7 7 8 8 7 7 6 6 6 6 7 7 6 6 6 7 7 8 9 8 9 9 10 11 9 10 13 13 12 11 11 10
11 11 11 10 11 10 10 9 8 8 7 7 7 7 8 8 8 7 7 7 6 6 5 5 5 6 7 7 7 7 7 7 10 10 10 10 10 9 14 15 13 12 11
10 11 11 11 11 11 10 8 8 7 6 6 6 6 7 8 8 8 6 6 7 6 6 6 6 6 7 7 7 7 7 7 8 9 11 12 11 10 10 15 15 13 12
9 10 10 10 10 10 8 7 6 6 6 5 5 5 7 7 8 8 6 7 7 6 6 6 7 7 6 7 7 7 6 7 7 8 9 9 10 12 12 11 13 14 15
9 10 10 10 10 9 8 8 7 7 6 6 6 7 7 7 7 7 6 6 6 6 7 8 7 8 7 6 5 5 6 7 7 7 8 9 11 11 11 12 12 10 13
9 9 10 10 10 9 8 8 7 7 6 6 6 6 7 7 7 6 6 6 6 6 8 8 8 7 6 7 6 5 5 5 7 8 8 9 12 10 12 13 13 12 10
8 9 9 9 9 9 9 7 7 6 5 6 7 7 7 8 7 7 6 6 6 7 7 8 8 9 7 8 8 6 5 7 5 5 9 10 10 9 11 12 14 14 13
8 8 9 8 8 8 8 8 9 7 7 7 7 7 8 7 7 7 6 6 6 6 7 8 8 8 9 8 8 9 8 5 4 5 6 9 10 11 11 11 12 14 14
7 6 7 7 7 7 7 7 7 7 7 7 7 8 8 7 7 7 7 6 6 6 7 8 8 9 8 9 8 7 9 8 8 6 6 6 7 9 10 11 10 11 14
5 5 5 6 6 6 7 7 8 8 8 9 9 9 8 6 6 8 8 6 6 6 6 7 8 9 9 10 9 9 8 8 9 9 8 7 7 7 8 8 9 9 11
Wind_Direction
157 155 144 168 169 170 169 169 168 167 167 170 168 166 167 169 167 168 172 171 165 168 176 149 119 107 103 100 99 98 94 91 89 91 91 98 102 107 105 109 140 111 101
152 154 144 170 173 177 179 181 184 186 186 186 185 185 186 189 191 192 198 201 199 199 209 204 168 149 129 120 119 120 107 93 89 88 102 130 117 109 110 102 32 91 109
147 153 157 170 182 187 192 196 200 203 202 202 202 204 203 205 206 209 215 222 224 221 223 221 207 190 166 152 136 128 117 103 91 90 241 157 124 117 118 120 104 110 115
134 155 157 147 187 201 209 215 217 217 216 215 216 217 218 217 217 220 224 231 234 233 235 231 223 212 201 188 172 157 137 138 126 240 237 87 115 110 120 121 122 122 122
105 96 76 64 221 241 245 242 239 236 232 229 227 226 227 229 227 228 231 234 238 239 240 238 235 229 222 214 207 206 184 171 183 247 26 56 79 108 119 125 130 128 136
68 49 47 24 3 340 310 287 269 261 253 246 240 237 235 235 235 233 234 236 238 240 241 241 244 242 234 223 220 220 197 185 216 198 165 184 112 116 131 135 149 151 154
46 34 32 27 10 358 342 325 306 286 271 261 254 250 245 242 240 237 238 238 240 241 241 241 246 247 238 227 225 224 211 213 233 193 196 185 100 114 136 135 144 152 152
40 32 28 27 15 1 347 335 322 305 288 275 266 261 256 251 246 241 238 238 238 238 240 240 243 245 241 233 229 230 224 244 212 204 192 174 101 142 155 146 148 145 148
44 35 23 14 6 358 349 336 325 318 306 296 283 274 266 259 254 248 242 237 236 235 238 239 240 240 240 236 231 229 227 248 250 215 203 163 128 176 169 164 159 158 159
42 31 18 7 0 349 337 328 324 318 313 306 296 287 278 267 258 251 246 236 234 234 234 234 234 235 235 234 229 227 226 232 233 217 211 143 141 190 174 166 162 161 159
36 23 11 358 354 338 317 313 310 305 303 298 282 287 286 274 263 251 244 239 236 236 235 232 229 230 230 220 221 221 227 233 215 229 210 122 169 199 188 179 173 167 161
15 4 357 345 340 328 318 312 306 302 301 296 278 272 273 272 270 268 269 248 244 240 238 233 230 227 230 220 197 204 227 226 217 216 178 141 194 205 198 191 184 179 167
1 358 351 340 333 327 317 309 307 300 295 284 273 262 257 260 260 262 265 252 243 235 235 224 221 227 225 223 223 216 225 233 221 213 174 159 200 207 205 200 195 188 178
0 354 347 341 333 330 325 318 304 302 299 290 276 264 252 249 252 255 255 256 252 242 237 234 234 228 233 225 220 228 218 225 230 221 171 164 204 212 209 205 202 197 192
357 352 350 341 337 332 326 313 306 305 302 294 286 278 263 258 253 251 251 247 250 250 242 237 236 233 235 238 234 233 231 222 227 224 193 175 205 215 212 206 203 202 200
355 351 349 343 340 334 326 318 312 308 299 293 286 281 277 267 261 258 256 250 246 242 241 240 240 235 234 236 239 237 238 231 228 225 223 193 199 210 213 209 205 204 205
351 348 350 341 341 337 332 327 316 308 304 299 293 285 276 270 269 264 259 249 240 232 234 237 236 232 228 229 232 238 236 236 232 225 222 220 204 200 206 207 207 206 206
351 348 349 347 344 341 337 327 321 315 311 301 297 290 283 278 275 272 264 258 248 238 232 228 225 224 223 225 229 228 229 225 233 234 227 217 218 206 197 201 204 206 209
351 346 349 352 347 346 340 330 325 320 317 309 304 301 299 292 284 274 268 266 256 244 234 231 222 222 225 223 228 228 232 229 230 229 231 226 215 212 208 185 198 206 210
350 346 350 352 352 348 345 338 338 332 330 329 323 322 314 301 292 284 271 261 257 250 242 231 228 222 227 224 228 227 228 229 232 230 239 238 229 214 215 196 195 204 209
353 350 351 353 356 353 350 346 345 343 337 341 338 338 324 313 303 288 279 274 263 253 249 241 232 227 225 219 220 225 227 230 234 235 234 238 234 225 218 211 207 201 199
350 347 351 357 356 355 353 344 339 335 331 339 337 337 337 330 319 304 290 278 263 259 251 245 235 236 230 213 215 219 222 220 226 230 232 234 236 221 222 218 212 206 210
349 350 350 354 351 356 353 349 343 346 341 349 349 345 342 336 327 316 303 289 276 263 255 248 239 233 234 226 222 220 223 224 203 206 224 228 232 230 222 223 219 208 208
348 346 347 352 353 356 352 356 354 352 352 347 341 340 339 343 340 332 316 300 285 272 264 256 244 240 236 233 228 230 238 244 214 202 208 224 227 226 228 224 224 217 208
338 339 342 349 352 357 355 355 348 354 348 345 345 345 344 347 346 344 334 320 304 286 275 266 258 243 237 236 232 227 229 233 236 232 214 204 219 224 225 231 226 221 215
333 335 338 344 351 354 351 354 357 352 348 348 349 348 345 347 346 350 341 330 316 304 293 280 266 254 245 241 238 232 227 222 221 225 228 211 208 214 217 226 234 227 218
Height
1551 1551 1550 1552 1553 1554 1555 1555 1556 1556 1557 1557 1557 1557 1557 1558 1558 1558 1557 1557 1557 1557 1557 1557 1556 1556 1555 1555 1555 1554 1553 1553 1552 1552 1551 1551 1550 1550 1550 1550 1550 1550 1549
1552 1553 1552 1553 1554 1555 1555 1556 1557 1557 1557 1557 1557 1557 1558 1558 1558 1557 1557 1557 1557 1557 1557 1556 1556 1556 1556 1555 1555 1555 1554 1554 1553 1553 1552 1552 1551 1551 1551 1551 1550 1551 1551
1554 1554 1553 1554 1555 1556 1556 1556 1557 1557 1557 1557 1557 1557 1557 1557 1557 1557 1557 1557 1557 1557 1556 1556 1556 1556 1556 1555 1555 1555 1555 1554 1554 1553 1553 1554 1553 1552 1551 1551 1551 1551 1551
1555 1555 1556 1555 1556 1556 1557 1557 1557 1557 1557 1557 1557 1557 1557 1557 1556 1556 1556 1556 1556 1556 1556 1556 1555 1555 1555 1555 1555 1555 1555 1555 1554 1554 1555 1555 1554 1552 1552 1552 1552 1552 1552
1556 1556 1555 1555 1556 1556 1556 1556 1556 1556 1556 1556 1556 1556 1556 1556 1556 1555 1555 1555 1555 1555 1555 1555 1555 1555 1555 1555 1555 1555 1555 1555 1554 1554 1555 1554 1554 1553 1552 1552 1552 1552 1553
1556 1556 1555 1555 1555 1555 1555 1556 1555 1555 1555 1555 1555 1555 1554 1554 1554 1554 1554 1554 1554 1554 1554 1554 1554 1554 1554 1554 1555 1555 1555 1555 1555 1555 1555 1554 1554 1553 1553 1553 1553 1553 1553
1556 1555 1555 1554 1555 1554 1554 1554 1554 1554 1553 1553 1553 1553 1553 1553 1553 1553 1553 1553 1553 1553 1553 1553 1553 1553 1553 1553 1554 1554 1555 1555 1555 1555 1555 1555 1554 1554 1553 1553 1553 1553 1554
1555 1555 1554 1554 1554 1553 1553 1553 1552 1552 1551 1551 1551 1551 1551 1551 1551 1551 1551 1551 1551 1551 1551 1552 1552 1552 1552 1552 1553 1553 1554 1554 1556 1556 1555 1555 1554 1554 1554 1554 1554 1554 1554
1555 1555 1554 1554 1553 1552 1551 1551 1550 1550 1549 1548 1548 1548 1548 1548 1548 1549 1549 1549 1549 1549 1550 1550 1550 1550 1551 1551 1552 1552 1553 1554 1555 1556 1556 1556 1554 1554 1554 1554 1554 1554 1555
1556 1555 1554 1552 1551 1550 1549 1548 1548 1547 1546 1546 1546 1545 1545 1546 1546 1546 1546 1547 1547 1547 1548 1548 1548 1549 1549 1550 1550 1551 1552 1553 1555 1555 1556 1555 1554 1554 1554 1554 1554 1554 1555
1557 1555 1553 1552 1550 1549 1548 1546 1545 1544 1543 1543 1542 1542 1542 1542 1543 1544 1544 1544 1545 1545 1546 1546 1547 1547 1547 1548 1549 1549 1551 1553 1554 1555 1555 1554 1554 1554 1554 1554 1554 1555 1555
1557 1555 1553 1551 1550 1548 1546 1544 1543 1541 1540 1539 1539 1539 1539 1539 1540 1541 1541 1541 1542 1542 1543 1544 1544 1545 1546 1548 1548 1548 1550 1552 1553 1554 1554 1553 1553 1553 1554 1554 1554 1555 1555
1557 1555 1552 1551 1549 1547 1544 1542 1541 1539 1537 1536 1535 1535 1535 1536 1536 1537 1537 1538 1538 1539 1540 1541 1542 1543 1545 1547 1547 1548 1549 1551 1552 1553 1553 1552 1553 1553 1553 1554 1554 1554 1555
1556 1554 1551 1549 1547 1545 1543 1540 1538 1537 1535 1533 1533 1532 1532 1532 1532 1533 1533 1534 1535 1536 1537 1538 1539 1541 1543 1545 1545 1547 1548 1548 1550 1551 1552 1551 1552 1552 1553 1553 1554 1554 1555
1555 1553 1550 1547 1544 1542 1540 1537 1536 1534 1532 1531 1529 1529 1529 1529 1529 1529 1530 1530 1531 1532 1533 1535 1536 1538 1540 1542 1543 1544 1546 1547 1548 1549 1550 1550 1551 1551 1552 1552 1553 1553 1554
1554 1551 1548 1545 1543 1540 1537 1535 1534 1531 1529 1528 1527 1526 1526 1526 1526 1526 1526 1527 1527 1528 1529 1531 1533 1535 1536 1538 1539 1541 1542 1544 1545 1546 1548 1549 1549 1550 1551 1551 1552 1552 1553
1553 1550 1547 1544 1541 1538 1535 1532 1530 1528 1527 1525 1524 1524 1523 1523 1523 1523 1522 1523 1524 1525 1526 1527 1528 1530 1532 1534 1535 1537 1539 1541 1543 1544 1546 1548 1548 1549 1549 1550 1550 1551 1552
1552 1549 1546 1543 1539 1536 1533 1530 1528 1526 1524 1523 1522 1521 1520 1520 1519 1519 1519 1519 1520 1521 1522 1523 1524 1527 1528 1530 1532 1533 1535 1537 1539 1542 1544 1545 1547 1548 1548 1548 1549 1550 1551
1551 1548 1545 1542 1538 1535 1531 1529 1526 1524 1522 1520 1519 1518 1517 1517 1516 1516 1515 1516 1516 1517 1518 1519 1521 1522 1524 1526 1528 1529 1532 1534 1536 1538 1541 1543 1544 1545 1547 1546 1547 1548 1549
1550 1548 1545 1541 1537 1534 1531 1528 1525 1523 1521 1519 1517 1515 1514 1513 1513 1512 1512 1512 1513 1513 1514 1515 1517 1518 1520 1522 1524 1526 1527 1530 1532 1534 1537 1539 1541 1543 1544 1545 1545 1546 1547
1550 1547 1544 1541 1538 1534 1530 1528 1525 1522 1520 1518 1516 1513 1512 1510 1509 1509 1509 1509 1509 1510 1510 1512 1513 1514 1516 1518 1520 1521 1523 1525 1527 1530 1532 1535 1537 1539 1541 1543 1544 1545 1545
1549 1547 1544 1541 1537 1534 1530 1527 1524 1522 1519 1517 1514 1512 1510 1508 1507 1506 1505 1505 1505 1505 1506 1507 1509 1510 1512 1514 1515 1517 1519 1521 1521 1524 1527 1529 1533 1535 1537 1539 1541 1542 1544
1549 1546 1543 1540 1537 1534 1530 1527 1524 1522 1519 1517 1514 1511 1509 1507 1505 1504 1503 1502 1502 1502 1503 1503 1505 1506 1507 1509 1511 1513 1515 1515 1516 1519 1521 1524 1527 1530 1533 1535 1538 1539 1541
1548 1545 1543 1540 1537 1533 1530 1527 1524 1522 1519 1516 1513 1510 1508 1506 1503 1502 1500 1499 1499 1499 1499 1499 1500 1501 1503 1504 1506 1507 1510 1511 1513 1514 1516 1518 1521 1524 1527 1530 1533 1536 1537
1547 1544 1541 1539 1536 1533 1530 1527 1524 1522 1519 1516 1513 1510 1507 1505 1502 1500 1499 1497 1496 1496 1496 1496 1496 1497 1498 1499 1501 1502 1504 1506 1508 1510 1511 1512 1515 1518 1521 1525 1528 1531 1533
1546 1543 1541 1538 1535 1532 1530 1527 1524 1521 1519 1516 1513 1510 1507 1505 1502 1500 1497 1496 1494 1493 1493 1492 1492 1493 1494 1494 1496 1497 1499 1500 1502 1504 1506 1507 1509 1512 1515 1518 1522 1525 1528